{"data":{"norad_id":64930,"epoch":"2026-09-20T10:25:18.155424Z","epoch_age_seconds":129901,"freshness":"FRESH","line1":"1 64930U 25157AC  26263.43423791  .00007248  00000+0  24503-3 0  9991","line2":"2 64930  53.1585 159.4124 0001086 102.6464 257.4659 15.31706810 65859","mean_motion":15.3170681,"eccentricity":0.0001086,"inclination_deg":53.1585,"raan_deg":159.4124,"arg_perigee_deg":102.6464,"mean_anomaly_deg":257.4659,"bstar":0.00024503,"rev_number":6585,"period_min":94.012769976521,"perigee_km":469.97590920814,"apogee_km":471.46348088231,"semimajor_km":6848.8566950452,"source":"CELESTRAK","updated_at":"2026-09-21T09:00:35.485179Z"}}